TimeMDT,TemperatureF,Dew PointF,Humidity,Sea Level PressureIn,VisibilityMPH,Wind Direction,Wind SpeedMPH,Gust SpeedMPH,PrecipitationIn,Events,Conditions,WindDirDegrees,DateUTC
12:17 AM,46.4,33.8,62,29.93,10.0,South,4.6,-,N/A,,Mostly Cloudy,180,2013-03-16 06:17:00
12:37 AM,46.4,33.8,62,29.94,10.0,Calm,Calm,-,N/A,,Mostly Cloudy,0,2013-03-16 06:37:00
12:57 AM,51.8,32.0,47,29.95,10.0,NW,3.5,-,N/A,,Scattered Clouds,310,2013-03-16 06:57:00
1:17 AM,50.0,32.0,50,29.94,10.0,North,12.7,17.3,N/A,,Mostly Cloudy,10,2013-03-16 07:17:00
1:37 AM,53.6,32.0,44,29.95,10.0,North,12.7,-,N/A,,Overcast,10,2013-03-16 07:37:00
1:57 AM,51.8,33.8,50,29.97,10.0,NNE,9.2,-,N/A,,Mostly Cloudy,30,2013-03-16 07:57:00
2:17 AM,50.0,33.8,54,29.97,10.0,NE,10.4,-,N/A,,Overcast,50,2013-03-16 08:17:00
2:37 AM,50.0,33.8,54,29.98,10.0,NE,5.8,-,N/A,,Overcast,40,2013-03-16 08:37:00
2:57 AM,50.0,33.8,54,29.98,10.0,NE,5.8,-,N/A,,Overcast,40,2013-03-16 08:57:00
3:17 AM,50.0,33.8,54,29.97,10.0,NE,8.1,-,N/A,,Overcast,40,2013-03-16 09:17:00
3:37 AM,50.0,32.0,50,29.96,10.0,ENE,8.1,-,N/A,,Overcast,70,2013-03-16 09:37:00
4:17 AM,48.2,33.8,58,29.96,10.0,ESE,4.6,-,N/A,,Overcast,120,2013-03-16 10:17:00
4:37 AM,46.4,35.6,66,29.97,10.0,SSE,8.1,-,N/A,,Overcast,160,2013-03-16 10:37:00
4:57 AM,46.4,33.8,62,29.97,10.0,ESE,4.6,-,N/A,,Overcast,120,2013-03-16 10:57:00
5:17 AM,46.4,33.8,62,29.98,10.0,ESE,9.2,-,N/A,,Overcast,120,2013-03-16 11:17:00
5:37 AM,46.4,33.8,62,29.99,10.0,ESE,11.5,-,N/A,,Overcast,120,2013-03-16 11:37:00
5:57 AM,46.4,33.8,62,30.00,10.0,SE,5.8,-,N/A,,Overcast,130,2013-03-16 11:57:00
6:17 AM,44.6,33.8,66,30.01,10.0,SE,8.1,-,N/A,,Overcast,140,2013-03-16 12:17:00
6:36 AM,42.8,33.8,70,30.00,10.0,SE,10.4,-,N/A,,Overcast,140,2013-03-16 12:36:00
6:48 AM,42.8,33.8,70,30.00,10.0,SE,10.4,-,N/A,,Overcast,140,2013-03-16 12:48:00
8:48 AM,44.6,32.0,61,30.03,40.0,SE,6.9,-,N/A,,Mostly Cloudy,140,2013-03-16 14:48:00
12:53 PM,50.0,28.4,43,29.93,40.0,WSW,10.4,-,N/A,,Overcast,240,2013-03-16 18:53:00
1:55 PM,50.0,28.4,43,29.88,40.0,West,4.6,-,N/A,,Overcast,270,2013-03-16 19:55:00
2:55 PM,50.0,28.4,43,29.96,40.0,West,6.9,-,N/A,,Overcast,280,2013-03-16 20:55:00
3:55 PM,50.0,28.4,43,29.85,40.0,Calm,Calm,-,N/A,,Overcast,0,2013-03-16 21:55:00
4:48 PM,50.0,35.6,58,29.85,40.0,Calm,Calm,-,N/A,,Mostly Cloudy,0,2013-03-16 22:48:00
5:50 PM,50.0,35.6,58,29.86,40.0,Calm,Calm,-,N/A,,Mostly Cloudy,0,2013-03-16 23:50:00
7:48 PM,44.6,37.4,76,29.86,30.0,South,5.8,-,N/A,,Scattered Clouds,170,2013-03-17 01:48:00
8:37 PM,44.6,37.4,76,29.86,10.0,SSW,10.4,-,N/A,,Clear,200,2013-03-17 02:37:00
8:56 PM,44.6,35.6,71,29.86,10.0,South,8.1,-,N/A,,Clear,190,2013-03-17 02:56:00
9:17 PM,42.8,35.6,76,29.85,10.0,South,12.7,-,N/A,,Clear,190,2013-03-17 03:17:00
9:37 PM,44.6,35.6,71,29.85,10.0,SSW,13.8,-,N/A,,Clear,200,2013-03-17 03:37:00
9:57 PM,42.8,35.6,76,29.85,10.0,SSW,17.3,-,N/A,,Clear,200,2013-03-17 03:57:00
10:17 PM,44.6,35.6,71,29.84,10.0,SSW,17.3,24.2,N/A,,Clear,210,2013-03-17 04:17:00
10:36 PM,44.6,35.6,71,29.84,10.0,SSW,17.3,-,N/A,,Clear,200,2013-03-17 04:36:00
10:57 PM,42.8,33.8,70,29.83,10.0,SSW,17.3,-,N/A,,Clear,200,2013-03-17 04:57:00
11:16 PM,42.8,33.8,70,29.83,10.0,SSW,15.0,-,N/A,,Clear,200,2013-03-17 05:16:00
11:37 PM,42.8,33.8,70,29.83,10.0,SSW,15.0,-,N/A,,Clear,200,2013-03-17 05:37:00
11:57 PM,42.8,33.8,70,29.83,10.0,South,15.0,20.7,N/A,,Clear,190,2013-03-17 05:57:00